"2016/01/01",1025.9,1028.3,1022.0
"2016/01/02",1022.3,1026.8,1018.8
"2016/01/03",1017.0,1019.1,1014.7
"2016/01/04",1014.0,1016.4,1011.2
"2016/01/05",1016.9,1019.3,1013.9
"2016/01/06",1018.0,1021.4,1012.5
"2016/01/07",1012.9,1017.0,1010.6
"2016/01/08",1014.3,1017.1,1011.3
"2016/01/09",1017.9,1020.3,1013.3
"2016/01/10",1016.9,1018.5,1014.9
"2016/01/11",1018.1,1020.2,1016.9
"2016/01/12",1015.9,1018.2,1013.3
"2016/01/13",1014.1,1017.2,1011.5
"2016/01/14",1012.5,1014.5,1010.9
"2016/01/15",1016.8,1019.2,1014.4
"2016/01/16",1019.5,1021.5,1017.2
"2016/01/17",1022.9,1024.9,1019.3
"2016/01/18", 998.7,1019.4, 984.9
"2016/01/19",1000.6,1005.1, 993.6
"2016/01/20",1008.9,1017.4,1003.0
"2016/01/21",1018.0,1019.9,1016.0
"2016/01/22",1020.0,1023.2,1017.6
"2016/01/23",1018.4,1023.2,1008.8
"2016/01/24",1004.5,1008.8,1001.0
"2016/01/25",1016.4,1023.3,1007.4
"2016/01/26",1023.6,1025.9,1022.4
"2016/01/27",1024.1,1027.0,1021.6
"2016/01/28",1026.2,1028.0,1024.1
"2016/01/29",1024.8,1027.3,1020.0
"2016/01/30",1020.6,1022.9,1017.9
"2016/01/31",1021.3,1023.5,1019.4
"2016/02/01",1020.5,1022.8,1018.5
"2016/02/02",1018.7,1020.5,1016.1
"2016/02/03",1022.2,1023.8,1020.2
"2016/02/04",1021.0,1024.3,1017.6
"2016/02/05",1016.6,1018.5,1014.9
"2016/02/06",1013.5,1015.3,1011.6
"2016/02/07",1016.8,1021.3,1012.8
"2016/02/08",1019.1,1021.8,1015.4
"2016/02/09",1010.1,1015.5,1004.8
"2016/02/10",1019.2,1026.0,1012.9
"2016/02/11",1031.0,1035.2,1025.9
"2016/02/12",1032.1,1035.1,1026.6
"2016/02/13",1020.4,1026.7,1012.8
"2016/02/14",1000.5,1012.9, 993.5
"2016/02/15",1003.6,1010.3, 997.8
"2016/02/16",1012.6,1015.0,1010.2
"2016/02/17",1015.3,1023.3,1011.7
"2016/02/18",1025.9,1028.2,1023.3
"2016/02/19",1025.6,1029.1,1023.4
"2016/02/20",1020.9,1029.4,1002.2
"2016/02/21",1013.5,1025.5,1002.0
"2016/02/22",1029.7,1032.9,1024.9
"2016/02/23",1022.6,1028.8,1017.8
"2016/02/24",1022.8,1026.3,1017.9
"2016/02/25",1027.0,1028.8,1025.6
"2016/02/26",1025.0,1026.9,1022.6
"2016/02/27",1025.5,1029.0,1022.7
"2016/02/28",1026.2,1028.1,1022.8
"2016/02/29",1010.6,1023.7,1001.2
"2016/03/01",1015.9,1020.8,1006.9
"2016/03/02",1021.8,1023.7,1020.2
"2016/03/03",1022.6,1026.7,1019.5
"2016/03/04",1031.0,1034.1,1026.6
"2016/03/05",1033.4,1034.8,1032.2
"2016/03/06",1026.8,1032.9,1022.5
"2016/03/07",1019.3,1022.6,1017.0
"2016/03/08",1014.3,1017.1,1012.0
"2016/03/09",1016.6,1018.5,1013.2
"2016/03/10",1017.8,1019.7,1015.6
"2016/03/11",1019.8,1021.7,1018.3
"2016/03/12",1024.0,1026.6,1021.2
"2016/03/13",1025.5,1028.4,1021.1
"2016/03/14",1015.3,1021.2,1009.4
"2016/03/15",1015.3,1024.0,1008.7
"2016/03/16",1023.7,1026.8,1021.4
"2016/03/17",1022.6,1024.3,1021.3
"2016/03/18",1019.7,1023.3,1015.3
"2016/03/19",1008.1,1015.4,1002.7
"2016/03/20",1012.1,1016.9,1006.3
"2016/03/21",1018.6,1021.0,1016.7
"2016/03/22",1016.7,1020.6,1012.1
"2016/03/23",1014.6,1017.9,1011.9
"2016/03/24",1016.8,1018.3,1015.0
"2016/03/25",1019.1,1022.1,1017.5
"2016/03/26",1021.5,1022.8,1019.9
"2016/03/27",1020.5,1022.1,1018.9
"2016/03/28",1019.8,1021.5,1018.4
"2016/03/29",1024.0,1025.7,1021.5
"2016/03/30",1018.6,1023.1,1014.0
"2016/03/31",1019.1,1020.9,1017.2
"2016/04/01",1022.1,1025.6,1018.9
"2016/04/02",1027.2,1028.4,1025.5
"2016/04/03",1024.1,1028.2,1018.3
"2016/04/04",1009.4,1018.3,1003.2
"2016/04/05",1015.1,1017.2,1011.0
"2016/04/06",1019.7,1023.3,1015.7
"2016/04/07",1011.6,1022.9, 999.7
"2016/04/08",1009.6,1014.9,1001.8
"2016/04/09",1014.8,1017.0,1012.6
"2016/04/10",1010.7,1013.1,1007.8
"2016/04/11",1012.9,1022.0,1007.3
"2016/04/12",1024.0,1026.7,1021.9
"2016/04/13",1018.3,1022.7,1011.9
"2016/04/14",1006.3,1011.9,1003.3
"2016/04/15",1013.4,1021.9,1005.8
"2016/04/16",1022.8,1025.6,1020.1
"2016/04/17",1009.3,1020.1,1000.6
"2016/04/18",1009.2,1014.9,1006.0
"2016/04/19",1017.6,1023.6,1014.1
"2016/04/20",1025.6,1028.2,1023.5
"2016/04/21",1016.5,1024.0,1004.2
"2016/04/22",1007.1,1014.5,1000.8
"2016/04/23",1012.3,1015.0,1009.8
"2016/04/24",1014.4,1018.9,1009.5
"2016/04/25",1020.6,1022.0,1018.3
"2016/04/26",1018.0,1021.0,1015.0
"2016/04/27",1014.9,1017.0,1011.8
"2016/04/28",1001.2,1011.9, 993.9
"2016/04/29",1000.7,1009.8, 993.5
"2016/04/30",1012.7,1014.4,1009.6
"2016/05/01",1014.1,1018.3,1011.6
"2016/05/02",1022.0,1023.9,1018.0
"2016/05/03",1018.2,1022.5,1013.2
"2016/05/04",1005.0,1013.3,1000.0
"2016/05/05",1010.4,1016.9,1006.7
"2016/05/06",1018.0,1020.4,1013.7
"2016/05/07",1008.0,1013.9,1003.4
"2016/05/08",1016.7,1020.9,1010.6
"2016/05/09",1018.5,1021.0,1013.9
"2016/05/10",1008.9,1013.9,1005.9
"2016/05/11",1001.3,1006.1, 997.7
"2016/05/12",1014.3,1020.9,1005.5
"2016/05/13",1020.1,1021.7,1018.2
"2016/05/14",1024.1,1026.7,1020.5
"2016/05/15",1023.3,1026.7,1020.8
"2016/05/16",1016.1,1021.1,1012.7
"2016/05/17",1012.8,1016.3,1010.4
"2016/05/18",1019.0,1021.5,1016.1
"2016/05/19",1022.2,1023.4,1020.8
"2016/05/20",1021.8,1023.3,1020.2
"2016/05/21",1018.2,1020.4,1016.2
"2016/05/22",1017.7,1019.2,1016.0
"2016/05/23",1015.2,1017.3,1012.6
"2016/05/24",1014.4,1015.5,1012.7
"2016/05/25",1014.7,1015.6,1013.7
"2016/05/26",1012.6,1014.9,1009.5
"2016/05/27",1010.0,1012.3,1007.4
"2016/05/28",1009.7,1011.4,1007.7
"2016/05/29",1009.0,1011.3,1007.7
"2016/05/30",1008.3,1009.2,1006.5
"2016/05/31",1005.7,1008.6,1001.6
"2016/06/01",1001.2,1002.9, 999.1
"2016/06/02",1005.4,1011.5,1002.2
"2016/06/03",1014.0,1015.7,1011.3
"2016/06/04",1013.3,1015.3,1011.4
"2016/06/05",1012.2,1014.9,1010.5
"2016/06/06",1017.4,1018.8,1014.6
"2016/06/07",1016.5,1018.3,1015.1
"2016/06/08",1015.0,1015.8,1014.1
"2016/06/09",1011.8,1015.3,1009.4
"2016/06/10",1014.2,1017.6,1010.2
"2016/06/11",1016.7,1018.2,1015.5
"2016/06/12",1013.7,1016.1,1009.5
"2016/06/13",1001.6,1009.6, 996.2
"2016/06/14",1004.7,1010.2,1000.0
"2016/06/15",1011.6,1013.0,1009.3
"2016/06/16",1008.0,1011.6,1002.8
"2016/06/17",1004.2,1009.5, 999.8
"2016/06/18",1013.6,1017.0,1009.3
"2016/06/19",1015.1,1017.2,1011.6
"2016/06/20",1008.1,1011.7,1005.9
"2016/06/21",1008.6,1011.0,1006.3
"2016/06/22",1010.3,1011.6,1007.8
"2016/06/23",1004.3,1007.9,1000.8
"2016/06/24",1008.1,1010.5,1002.7
"2016/06/25",1000.0,1002.8, 997.7
"2016/06/26",1006.0,1011.0,1001.7
"2016/06/27",1014.8,1016.4,1010.6
"2016/06/28",1013.6,1015.6,1011.5
"2016/06/29",1016.0,1017.0,1014.6
"2016/06/30",1013.9,1015.6,1012.1
"2016/07/01",1014.2,1016.0,1012.9
"2016/07/02",1011.6,1015.0,1008.5
"2016/07/03",1007.9,1010.7,1005.8
"2016/07/04",1012.4,1015.7,1010.1
"2016/07/05",1020.4,1023.2,1015.6
"2016/07/06",1017.4,1022.1,1013.2
"2016/07/07",1014.2,1017.1,1012.3
"2016/07/08",1014.8,1016.6,1012.5
"2016/07/09",1009.2,1013.6,1004.5
"2016/07/10",1005.1,1006.6,1003.6
"2016/07/11",1005.8,1007.6,1004.4
"2016/07/12",1007.2,1008.7,1005.7
"2016/07/13",1003.2,1006.9, 999.2
"2016/07/14", 997.6, 999.5, 995.1
"2016/07/15",1000.8,1005.9, 997.4
"2016/07/16",1008.4,1010.7,1005.6
"2016/07/17",1008.1,1009.5,1006.6
"2016/07/18",1008.2,1010.0,1007.1
"2016/07/19",1010.5,1012.0,1008.9
"2016/07/20",1013.1,1015.0,1011.5
"2016/07/21",1014.4,1015.3,1013.7
"2016/07/22",1014.9,1016.3,1013.5
"2016/07/23",1016.0,1017.2,1015.1
"2016/07/24",1016.6,1017.5,1015.8
"2016/07/25",1015.7,1016.8,1014.4
"2016/07/26",1012.8,1015.0,1011.2
"2016/07/27",1012.0,1013.7,1010.6
"2016/07/28",1013.8,1015.6,1013.0
"2016/07/29",1015.0,1015.9,1013.7
"2016/07/30",1015.0,1016.2,1013.8
"2016/07/31",1013.1,1014.5,1011.3
"2016/08/01",1010.0,1012.0,1007.9
"2016/08/02",1009.4,1010.6,1007.6
"2016/08/03",1010.0,1011.5,1008.6
"2016/08/04",1010.6,1012.0,1009.3
"2016/08/05",1011.3,1012.5,1009.7
"2016/08/06",1011.0,1012.1,1009.4
"2016/08/07",1011.3,1012.3,1010.0
"2016/08/08",1003.6,1010.2, 998.5
"2016/08/09",1001.6,1006.5, 998.0
"2016/08/10",1009.0,1011.3,1006.2
"2016/08/11",1011.2,1012.6,1009.6
"2016/08/12",1011.5,1012.8,1010.1
"2016/08/13",1010.1,1011.3,1008.5
"2016/08/14",1007.3,1009.4,1005.1
"2016/08/15",1004.8,1006.4,1002.8
"2016/08/16",1003.4,1006.3, 993.4
"2016/08/17", 998.3,1005.7, 988.1
"2016/08/18",1007.5,1009.7,1005.0
"2016/08/19",1009.1,1010.2,1008.1
"2016/08/20",1006.8,1008.7,1005.0
"2016/08/21",1007.2,1009.0,1004.7
"2016/08/22",1000.9,1008.1, 986.2
"2016/08/23",1006.2,1009.8,1002.7
"2016/08/24",1010.0,1011.5,1007.6
"2016/08/25",1009.7,1011.1,1007.8
"2016/08/26",1006.1,1008.7,1003.8
"2016/08/27",1006.8,1008.1,1005.0
"2016/08/28",1004.9,1007.6,1001.0
"2016/08/29", 994.9,1001.0, 988.4
"2016/08/30", 985.8, 994.5, 980.2
"2016/08/31",1001.2,1006.0, 994.5
"2016/09/01",1009.4,1012.5,1005.8
"2016/09/02",1014.2,1015.7,1012.4
"2016/09/03",1016.4,1017.8,1015.2
"2016/09/04",1017.1,1018.3,1015.6
"2016/09/05",1014.9,1016.8,1013.1
"2016/09/06",1009.8,1013.2,1007.7
"2016/09/07",1006.8,1008.1,1005.0
"2016/09/08",1004.2,1007.1,1000.1
"2016/09/09",1005.2,1009.3,1000.1
"2016/09/10",1012.6,1015.4,1009.0
"2016/09/11",1016.9,1018.8,1014.4
"2016/09/12",1019.0,1020.3,1017.9
"2016/09/13",1017.2,1019.3,1015.2
"2016/09/14",1016.9,1018.3,1015.6
"2016/09/15",1016.3,1018.2,1014.9
"2016/09/16",1017.5,1018.9,1016.4
"2016/09/17",1015.0,1016.8,1013.3
"2016/09/18",1009.9,1013.3,1006.7
"2016/09/19",1010.3,1011.9,1008.1
"2016/09/20",1010.9,1012.9,1007.9
"2016/09/21",1019.6,1023.0,1012.0
"2016/09/22",1019.5,1022.6,1016.1
"2016/09/23",1015.9,1016.3,1015.1
"2016/09/24","  * ","  * ","  * "
"2016/09/25","  * ","  * ","  * "
"2016/09/26","  * ","  * ","  * "
"2016/09/27","  * ","  * ","  * "
"2016/09/28","  * ","  * ","  * "
"2016/09/29","  * ","  * ","  * "
"2016/09/30","  * ","  * ","  * "
"2016/10/01",1019.4,1020.7,1017.5
"2016/10/02",1019.6,1020.7,1018.4
"2016/10/03",1014.7,1018.8,1009.7
"2016/10/04",1013.8,1019.2,1010.1
"2016/10/05",1016.5,1020.8,1004.7
"2016/10/06",1012.3,1020.7,1002.9
"2016/10/07",1025.0,1026.8,1020.6
"2016/10/08",1015.3,1024.9,1006.2
"2016/10/09",1007.8,1015.0,1003.1
"2016/10/10",1017.8,1019.8,1014.9
"2016/10/11",1019.0,1021.0,1017.1
"2016/10/12",1017.2,1019.8,1014.8
"2016/10/13",1022.2,1024.1,1019.3
"2016/10/14",1025.4,1027.2,1023.6
"2016/10/15",1028.5,1029.9,1027.1
"2016/10/16",1028.0,1030.3,1024.5
"2016/10/17",1023.0,1024.5,1021.7
"2016/10/18","  * ","  * ","  * "
"2016/10/19","  * ","  * ","  * "
"2016/10/20","  * ","  * ","  * "
"2016/10/21","  * ","  * ","  * "
"2016/10/22","  * ","  * ","  * "
"2016/10/23","  * ","  * ","  * "
"2016/10/24","  * ","  * ","  * "
"2016/10/25",1018.2,1020.2,1015.3
"2016/10/26",1014.1,1016.4,1011.7
"2016/10/27",1019.6,1023.4,1013.6
"2016/10/28",1018.2,1023.7,1007.1
"2016/10/29",1007.3,1010.8,1005.8
"2016/10/30","  * ","  * ","  * "
"2016/10/31","  * ","  * ","  * "
"2016/11/01",1018.9,1023.6,1014.4
"2016/11/02",1024.8,1026.9,1021.8
"2016/11/03",1014.8,1021.9,1011.1
"2016/11/04",1015.7,1017.5,1013.8
"2016/11/05","  * ","  * ","  * "
"2016/11/06","  * ","  * ","  * "
"2016/11/07","  * ","  * ","  * "
"2016/11/08",1014.6,1018.1,1013.0
"2016/11/09",1017.1,1022.3,1013.2
"2016/11/10",1025.0,1027.2,1021.5
"2016/11/11",1018.5,1023.2,1015.1
"2016/11/12",1020.8,1022.5,1019.7
"2016/11/13","  * ","  * ","  * "
"2016/11/14","  * ","  * ","  * "
"2016/11/15",1008.7,1012.9,1006.5
"2016/11/16",1018.5,1021.4,1012.8
"2016/11/17",1021.2,1025.4,1018.6
"2016/11/18",1026.8,1028.7,1025.2
"2016/11/19","  * ","  * ","  * "
"2016/11/20","  * ","  * ","  * "
"2016/11/21","  * ","  * ","  * "
"2016/11/22",1009.5,1012.2,1007.7
"2016/11/23",1016.8,1021.5,1009.1
"2016/11/24",1020.3,1022.1,1018.0
